Погода в Березовском Рядке

Россия / Тверская область     58°05′50″N   34°28′42″E
темп.,
°C
ветер,
м/с
пор.,
м/с
влажн.,
%
обл.,
%
осадки,
мм/ч
давл.,
гПа
погр.,
м
9 марта, вт
вт900:00−15с269790 0.0 1014211
03:00−18ссз239875 0.1 101677
06:00−20с259846 0.0 1017139
09:00−19с249255 0.0 1019252
12:00−15с247979 0.0 1020520
15:00−13ссз357469 0.0 1021725
18:00−15ссв258775 0.0 1022187
21:00−19ссв229646 0.0 102547
10 марта, ср
ср1000:00−21св24980 0.0 102788
03:00−23св22970 0.0 102964
06:00−24св12960 0.0 103024
09:00−22всв13870 0.0 1031172
12:00−15св12650 0.0 1032383
15:00−11ссв01600 0.0 1031507
18:00−13зсз12730 0.0 103120
21:00−16зсз128210 0.0 103220
11 марта, чт
чт1100:00−17сз118728 0.0 103220
03:00−18з118814 0.0 103320
06:00−18юз11880 0.0 103220
09:00−15ююз23800 0.0 1033137
12:00−9ю35650 0.0 1031470
15:00−7ю46600 0.0 1030876
18:00−9ю38750 0.0 1028259
21:00−12ю410840 0.0 1028321
12 марта, пт
пт1200:00−13ю410870 0.0 1027306
03:00−14ю410910 0.0 1026276
06:00−14ю4109310 0.0 1025294
09:00−13ю598825 0.0 1023330
12:00−7ю512740 0.0 1022539
15:00−4ю612670 0.0 1020796
18:00−6ю613780 0.0 1018766
21:00−7ю6158629 0.0 1017782
13 марта, сб
сб1300:00−8ю61486100 0.0 1016820
03:00−8ююв61390100 0.2 1013864
06:00−7ю61391100 0.6 1012830
09:00−6ю51189100 0.8 1011681
12:00−3ю4888100 0.3 1011557
15:00+1ююз3796100 0.5 1010481
18:00+1ю4109187 0.0 1010388
21:00+1ююз5128892 0.0 1009796